[[{"header":{"parameterUnit":"m.s-1","parameterCategory":1,"la1":30.2991,"la2":30.254,"lo1":-89.0895,"lo2":-89.0444,"dy":0.0017,"dx":0.0017,"nx":28,"ny":28,"refTime":"2023-11-12T03:00:00:Z","depth":0,"parameterNumber":2,"parameterNumberName":"U-component_of_WINDS"},"data":[0,0,0,0,0,0,0,0,0,0,0,0,0,0,0,0,0,0,0,0,0,0,0,0,0,0,0,0,0,0,0,0,0,0,0,0,0,0,0,0,0,0,0,0,0,0,0,0,0,0,0,0,0,0,0,0,0,0,-2.4697,-2.4698,0,-2.4783,-2.4784,-2.4785,-2.475,-2.4748,-2.4746,-2.4744,-2.4832,-2.4837,-2.4841,0,0,0,0,0,0,0,0,0,0,0,0,0,-2.4503,-2.4507,-2.4697,-2.4698,-2.4699,-2.4782,-2.4784,-2.4785,-2.4751,-2.4748,-2.4746,-2.4743,-2.4831,-2.4836,-2.4841,0,0,0,0,0,0,0,0,0,0,0,0,0,-2.4588,-2.4508,-2.4697,-2.4692,-2.4692,-2.4782,-2.4784,-2.4785,-2.4751,-2.4748,-2.4745,-2.4742,-2.4829,-2.4836,-2.4842,-2.4941,0,0,-2.4861,-2.4864,0,0,0,0,0,0,0,0,-2.4583,-2.4595,-2.4692,-2.4692,-2.4693,-2.4753,-2.4748,-2.4838,-2.4752,-2.4729,-2.4744,-2.4741,-2.4808,-2.4816,-2.4839,-2.4946,-2.4949,-2.4862,-2.4866,-2.4868,-2.487,0,0,0,0,0,0,0,-2.4577,-2.4591,-2.4731,-2.4693,-2.4694,-2.4685,-2.4694,-2.4764,-2.4785,-2.4731,-2.4728,-2.4739,-2.4808,-2.4833,-2.4841,-2.4951,-2.4862,-2.4867,-2.4871,-2.4874,-2.5143,-2.5146,0,0,0,0,0,0,-2.4571,-2.4586,-2.4728,-2.4733,-2.4629,-2.4691,-2.4701,-2.4737,-2.4784,-2.4788,-2.4741,-2.4737,-2.4824,-2.4833,-2.4844,-2.4964,-2.4868,-2.4874,-2.4878,-2.514,-2.5144,-2.5147,0,0,0,0,0,0,-2.4567,-2.4584,-2.4724,-2.4659,-2.4676,-2.4698,-2.4738,-2.474,-2.4765,-2.4792,-2.4795,-2.4763,-2.4822,-2.4835,-2.4917,-2.4966,-2.4877,-2.4883,-2.5136,-2.5141,-2.5146,-2.5205,0,0,0,0,0,0,-2.4562,-2.4583,-2.4621,-2.466,-2.468,-2.4797,-2.4741,-2.4744,-2.4776,-2.4771,-2.4813,-2.4817,-2.482,-2.4908,-2.4924,-2.4974,-2.4888,-2.5132,-2.5138,-2.5144,-2.5199,-2.5211,-2.5222,0,0,0,0,0,-2.4555,-2.4634,-2.4623,-2.464,-2.4728,-2.48,-2.4811,-2.4813,-2.478,-2.4818,-2.4836,-2.4816,-2.4958,-2.4917,-2.4934,-2.4987,-2.5129,-2.5136,-2.5144,-2.5193,-2.5209,-2.5222,0,0,0,0,0,0,-2.46,-2.4639,-2.4628,-2.4722,-2.4758,-2.4794,-2.4843,-2.4829,-2.4876,-2.4869,-2.4869,-2.4879,-2.4964,-2.4983,-2.4937,-2.5085,-2.5038,-2.505,-2.507,-2.5085,-2.5097,-2.5091,-2.4893,0,0,0,0,0,-2.4621,-2.4676,-2.4707,-2.4788,-2.4806,-2.4822,-2.4853,-2.4851,-2.4888,-2.4903,-2.4927,-2.4964,-2.5017,-2.5052,-2.5102,-2.52,-2.5209,-2.5245,-2.5257,-2.5266,-2.5277,-2.533,-2.5347,-2.5172,-2.5172,-2.5172,0,0,-2.4665,-2.4693,-2.4728,-2.4798,-2.4825,-2.4882,-2.4835,-2.4897,-2.4939,-2.4913,-2.4992,-2.5011,-2.5052,-2.5143,-2.5184,-2.5162,-2.5326,-2.5276,-2.5283,-2.5288,-2.534,-2.5356,-2.5371,-2.5177,-2.5177,-2.5176,0,0,-2.4775,-2.4802,-2.4872,-2.49,-2.4943,-2.4952,-2.4969,-2.5007,-2.5018,-2.5098,-2.5079,-2.5129,-2.5221,-2.5251,-2.5278,-2.5398,-2.5382,-2.5415,-2.5476,-2.5529,-2.5543,-2.5555,-2.5599,-2.5614,-2.5424,-2.5425,-2.5425,0,-2.4825,-2.491,-2.4909,-2.4973,-2.5005,-2.4983,-2.5054,-2.5081,-2.5138,-2.516,-2.5133,-2.5247,-2.5273,-2.5372,-2.5401,-2.5423,-2.5443,-2.541,-2.5541,-2.5553,-2.5564,-2.5606,-2.5622,-2.5428,-2.5428,-2.5427,-2.5427,0,-2.4969,-2.5028,-2.508,-2.5135,-2.5172,-2.5239,-2.5249,-2.5286,-2.528,-2.5293,-2.5374,-2.5404,-2.546,-2.5483,-2.5479,-2.5581,-2.5566,-2.554,-2.5493,-2.5585,-2.5624,-2.564,-2.5434,-2.5432,-2.5431,-2.543,0,0,-2.5111,-2.5165,-2.5184,-2.5209,-2.5253,-2.5299,-2.5365,-2.542,-2.5452,-2.5491,-2.5547,-2.5624,-2.5601,-2.5632,-2.563,-2.5676,-2.577,-2.5645,-2.5646,-2.5668,-2.5885,-2.5905,-2.5923,-2.5759,-2.5762,-2.5764,-2.5882,0,-2.5225,-2.5341,-2.5342,-2.5449,-2.5504,-2.5483,-2.5541,-2.5574,-2.5587,-2.5636,-2.5649,-2.5705,-2.5669,-2.5688,-2.5732,-2.5749,-2.5814,-2.5741,-2.5811,-2.5814,-2.5803,-2.5944,-2.5965,-2.6075,-2.5897,-2.59,-2.5902,0,-2.5374,-2.5418,-2.553,-2.5567,-2.559,-2.5642,-2.5692,-2.5738,-2.5776,-2.5782,-2.5816,-2.5808,-2.5875,-2.5824,-2.5917,-2.5867,-2.5896,-2.5908,-2.5913,-2.592,-2.5864,-2.5956,-2.611,-2.6127,-2.5926,-2.5924,-2.5922,0,-2.5467,-2.5555,-2.5633,-2.5655,-2.57,-2.5737,-2.5757,-2.5791,-2.5824,-2.5867,-2.5889,-2.594,-2.5968,-2.6007,-2.6013,-2.5975,-2.6106,-2.6056,-2.6113,-2.6113,-2.6143,-2.6141,-2.6304,-2.616,-2.6159,-2.6159,-2.6159,0,-2.5595,-2.5665,-2.5676,-2.5725,-2.5802,-2.5802,-2.5879,-2.5896,-2.5927,-2.5978,-2.5963,-2.6011,-2.6015,-2.6064,-2.6069,-2.6145,-2.6158,-2.6165,-2.6165,-2.6167,-2.6166,-2.6187,-2.618,-2.6163,-2.6162,-2.6161,-2.6161,0,-2.5714,-2.5724,-2.5808,-2.5843,-2.5853,-2.5909,-2.5939,-2.5985,-2.5996,-2.6061,-2.6076,-2.6094,-2.6152,-2.616,-2.6228,-2.6231,-2.6323,-2.6315,-2.631,-2.631,-2.6367,-2.6362,-2.655,-2.6575,-2.6413,-2.6414,-2.6415,0,-2.5795,-2.5848,-2.5889,-2.5922,-2.5944,-2.5998,-2.6031,-2.6033,-2.6069,-2.6115,-2.6156,-2.6212,-2.6257,-2.635,-2.6369,-2.6421,-2.6414,-2.6477,-2.6422,-2.6422,-2.6417,-2.6414,-2.6419,-2.6488,-2.6489,-2.6491,-2.6492,0,-2.5939,-2.5941,-2.599,-2.6041,-2.6081,-2.6121,-2.6158,-2.6186,-2.6193,-2.6233,-2.6292,-2.6327,-2.6396,-2.6452,-2.6503,-2.6524,-2.651,-2.6509,-2.6525,-2.6528,-2.6523,-2.6528,-2.634,-2.6505,-2.6504,-2.6503,-2.6502,-2.6501,-2.6042,-2.6089,-2.6125,-2.6179,-2.6208,-2.6243,-2.6288,-2.6305,-2.6354,-2.641,-2.6408,-2.6473,-2.6508,-2.6575,-2.6599,-2.665,-2.663,-2.6653,-2.6659,-2.6665,-2.6671,-2.6514,-2.6659,-2.6659,-2.6659,-2.6658,-2.6658,0,-2.6186,-2.6208,-2.6258,-2.6311,-2.6355,-2.6336,-2.6377,-2.6414,-2.6471,-2.6506,-2.655,-2.6618,-2.6672,-2.6695,-2.6748,-2.6784,-2.6779,-2.6798,-2.6796,-2.6801,-2.6686,-2.6667,-2.6801,-2.6801,-2.6801,-2.6801,-2.6801,-2.6801,-2.6266,-2.6344,-2.6351,-2.6442,-2.6463,-2.6527,-2.6552,-2.6584,-2.6612,-2.6688,-2.6733,-2.6747,-2.6777,-2.6832,-2.688,-2.6885,-2.6906,-2.6929,-2.6931,-2.6824,-2.6809,-2.6795,-2.6778,-2.6933,-2.6933,-2.7042,-2.7043,-2.7044]},{"header":{"parameterUnit":"m.s-1","parameterCategory":1,"la1":30.2991,"la2":30.254,"lo1":-89.0895,"lo2":-89.0444,"dy":0.0017,"dx":0.0017,"nx":28,"ny":28,"refTime":"2023-11-12T03:00:00:Z","depth":0,"parameterNumber":3,"parameterNumberName":"V-component_of_WINDS"},"data":[0,0,0,0,0,0,0,0,0,0,0,0,0,0,0,0,0,0,0,0,0,0,0,0,0,0,0,0,0,0,0,0,0,0,0,0,0,0,0,0,0,0,0,0,0,0,0,0,0,0,0,0,0,0,0,0,0,0,-3.7455,-3.7455,0,-3.7466,-3.7466,-3.7466,-3.7417,-3.7416,-3.7415,-3.7413,-3.7423,-3.7425,-3.7427,0,0,0,0,0,0,0,0,0,0,0,0,0,-3.7389,-3.7391,-3.7455,-3.7455,-3.7455,-3.7466,-3.7466,-3.7466,-3.7418,-3.7416,-3.7414,-3.7413,-3.7423,-3.7425,-3.7427,0,0,0,0,0,0,0,0,0,0,0,0,0,-3.7411,-3.7391,-3.7455,-3.7432,-3.743,-3.7466,-3.7466,-3.7466,-3.7418,-3.7416,-3.7414,-3.7412,-3.7422,-3.7425,-3.7427,-3.7484,0,0,-3.7434,-3.7435,0,0,0,0,0,0,0,0,-3.741,-3.7413,-3.7435,-3.7434,-3.7432,-3.7438,-3.7447,-3.7472,-3.7419,-3.7423,-3.7413,-3.7411,-3.743,-3.7432,-3.7438,-3.7485,-3.7485,-3.7435,-3.7436,-3.7437,-3.7438,0,0,0,0,0,0,0,-3.7408,-3.7412,-3.7459,-3.7436,-3.7433,-3.7421,-3.7421,-3.7451,-3.7438,-3.7422,-3.7419,-3.7421,-3.7429,-3.7436,-3.7438,-3.7486,-3.7434,-3.7437,-3.7438,-3.7439,-3.7579,-3.7581,0,0,0,0,0,0,-3.741,-3.7412,-3.7459,-3.7459,-3.7415,-3.7424,-3.7424,-3.7438,-3.7438,-3.7436,-3.7423,-3.7418,-3.7433,-3.7435,-3.7438,-3.7505,-3.7437,-3.7439,-3.7441,-3.7577,-3.7579,-3.7582,0,0,0,0,0,0,-3.7409,-3.7415,-3.7458,-3.7435,-3.7439,-3.7427,-3.7443,-3.744,-3.7447,-3.7438,-3.7435,-3.7433,-3.7432,-3.7435,-3.7473,-3.7505,-3.744,-3.7442,-3.7574,-3.7577,-3.7581,-3.764,0,0,0,0,0,0,-3.7407,-3.7414,-3.7437,-3.7435,-3.7441,-3.7494,-3.7445,-3.7441,-3.7452,-3.7446,-3.7447,-3.7445,-3.743,-3.747,-3.7476,-3.7507,-3.7444,-3.7571,-3.7576,-3.758,-3.7635,-3.7645,-3.7653,0,0,0,0,0,-3.7405,-3.7453,-3.7438,-3.7444,-3.7468,-3.7496,-3.7499,-3.7481,-3.7454,-3.7476,-3.747,-3.7445,-3.7501,-3.7474,-3.748,-3.7513,-3.7569,-3.7574,-3.7579,-3.7631,-3.7643,-3.7653,0,0,0,0,0,0,-3.7458,-3.7452,-3.7436,-3.7485,-3.7491,-3.7487,-3.7515,-3.7494,-3.7508,-3.7502,-3.7479,-3.748,-3.7522,-3.7521,-3.7492,-3.7568,-3.753,-3.7537,-3.7567,-3.7578,-3.7587,-3.7587,-3.7446,0,0,0,0,0,-3.7475,-3.7499,-3.7492,-3.7536,-3.754,-3.7527,-3.7538,-3.7524,-3.7529,-3.7532,-3.7528,-3.7534,-3.7553,-3.7565,-3.7582,-3.7634,-3.7633,-3.766,-3.7669,-3.7676,-3.7682,-3.7709,-3.7721,-3.7599,-3.7599,-3.7599,0,0,-3.7511,-3.7511,-3.7527,-3.7547,-3.755,-3.7574,-3.7529,-3.7557,-3.7574,-3.7536,-3.7572,-3.7569,-3.7574,-3.762,-3.7639,-3.762,-3.7716,-3.7683,-3.7689,-3.7691,-3.7716,-3.7727,-3.7737,-3.7602,-3.7602,-3.7601,0,0,-3.759,-3.7592,-3.7629,-3.7633,-3.7638,-3.7629,-3.7638,-3.7637,-3.7634,-3.767,-3.7641,-3.7661,-3.7694,-3.7698,-3.7705,-3.7784,-3.7761,-3.779,-3.7838,-3.7864,-3.7874,-3.7882,-3.791,-3.7921,-3.7796,-3.7796,-3.7796,0,-3.7634,-3.7669,-3.765,-3.7679,-3.7688,-3.7654,-3.7691,-3.7695,-3.7706,-3.7713,-3.7691,-3.7731,-3.7732,-3.7778,-3.7797,-3.7803,-3.7812,-3.779,-3.7874,-3.7882,-3.789,-3.7916,-3.7927,-3.78,-3.7799,-3.7799,-3.7799,0,-3.7723,-3.7748,-3.7777,-3.7788,-3.78,-3.7833,-3.7818,-3.7832,-3.7817,-3.781,-3.7846,-3.7846,-3.7862,-3.7871,-3.7857,-3.7915,-3.7903,-3.7878,-3.784,-3.7905,-3.793,-3.794,-3.7805,-3.7803,-3.7802,-3.7801,0,0,-3.7835,-3.7835,-3.7846,-3.785,-3.7853,-3.7872,-3.7903,-3.7918,-3.7931,-3.7939,-3.7964,-3.7992,-3.7969,-3.7977,-3.7962,-3.7986,-3.8048,-3.7958,-3.7957,-3.7974,-3.8111,-3.813,-3.8142,-3.8032,-3.8034,-3.8036,-3.8111,0,-3.7912,-3.7965,-3.7948,-3.8001,-3.8024,-3.7992,-3.8018,-3.8023,-3.8017,-3.8034,-3.8027,-3.8048,-3.8016,-3.802,-3.8042,-3.8036,-3.8075,-3.803,-3.8055,-3.8056,-3.8055,-3.8155,-3.8175,-3.8245,-3.812,-3.8122,-3.8123,0,-3.8008,-3.802,-3.8076,-3.8075,-3.8084,-3.8108,-3.8121,-3.8138,-3.8142,-3.8136,-3.8144,-3.8125,-3.8154,-3.8115,-3.8155,-3.8125,-3.8134,-3.8132,-3.8135,-3.8136,-3.8094,-3.8159,-3.8268,-3.8278,-3.8138,-3.8137,-3.8136,0,-3.8084,-3.8114,-3.8152,-3.8156,-3.8156,-3.8174,-3.8174,-3.8176,-3.8186,-3.8197,-3.8204,-3.8218,-3.8226,-3.8237,-3.8221,-3.8194,-3.8263,-3.8223,-3.8258,-3.8259,-3.8274,-3.8273,-3.8386,-3.8281,-3.828,-3.828,-3.828,0,-3.8171,-3.8207,-3.8186,-3.8209,-3.8247,-3.8226,-3.8265,-3.8261,-3.8263,-3.8285,-3.8258,-3.8278,-3.8256,-3.8274,-3.8262,-3.8296,-3.83,-3.8296,-3.8292,-3.8298,-3.8299,-3.8304,-3.8298,-3.8283,-3.8282,-3.8282,-3.8281,0,-3.8263,-3.825,-3.8289,-3.8285,-3.8285,-3.8313,-3.8309,-3.833,-3.8322,-3.8349,-3.8354,-3.8341,-3.8361,-3.8347,-3.8366,-3.8358,-3.8404,-3.8393,-3.8402,-3.84,-3.8435,-3.8432,-3.8555,-3.857,-3.8455,-3.8456,-3.8457,0,-3.832,-3.8346,-3.8345,-3.8357,-3.836,-3.838,-3.839,-3.8371,-3.8382,-3.8389,-3.8408,-3.8426,-3.8439,-3.8472,-3.8464,-3.8479,-3.8469,-3.8511,-3.8471,-3.8476,-3.8469,-3.8468,-3.847,-3.8519,-3.852,-3.8521,-3.8522,0,-3.8421,-3.8413,-3.8429,-3.8443,-3.8456,-3.8466,-3.8474,-3.8486,-3.8466,-3.848,-3.85,-3.851,-3.853,-3.8548,-3.856,-3.856,-3.8538,-3.8535,-3.8544,-3.855,-3.8554,-3.8552,-3.8424,-3.8532,-3.8531,-3.853,-3.853,-3.8529,-3.8496,-3.8518,-3.8521,-3.8539,-3.8543,-3.8551,-3.857,-3.8564,-3.858,-3.8595,-3.8583,-3.8607,-3.8609,-3.8623,-3.8625,-3.8643,-3.8626,-3.8639,-3.8642,-3.8646,-3.8651,-3.8552,-3.8645,-3.8645,-3.8645,-3.8645,-3.8644,0,-3.8596,-3.8596,-3.8614,-3.8625,-3.864,-3.8618,-3.8625,-3.8638,-3.866,-3.8664,-3.8677,-3.87,-3.8717,-3.871,-3.8725,-3.8741,-3.8731,-3.8745,-3.8744,-3.8744,-3.8666,-3.8656,-3.8753,-3.8753,-3.8753,-3.8753,-3.8753,-3.8753,-3.865,-3.8685,-3.8678,-3.8715,-3.8714,-3.8737,-3.8743,-3.875,-3.8753,-3.878,-3.8794,-3.8789,-3.8789,-3.8803,-3.8818,-3.8815,-3.8822,-3.884,-3.8834,-3.8761,-3.875,-3.874,-3.8731,-3.8841,-3.8842,-3.8911,-3.8911,-3.8912]}]]